Weather reports worldwide

Advertisment
Bremen, Germany (10224): temperature & dewpoint: 13.09.2019 20:00:00 - 19.09.2019 20:00:00 (CEST)Bremen, Germany (10224): temperature 5cm & temperature -5cm: 13.09.2019 20:00:00 - 19.09.2019 20:00:00 (CEST)Bremen, Germany (10224): temperature -20cm & temperature -100cm: 13.09.2019 20:00:00 - 19.09.2019 20:00:00 (CEST)Bremen, Germany (10224): wind speed & gusts: 13.09.2019 20:00:00 - 19.09.2019 20:00:00 (CEST)Bremen, Germany (10224): wind direction: 13.09.2019 20:00:00 - 19.09.2019 20:00:00 (CEST)Bremen, Germany (10224): reduced air pressure: 13.09.2019 20:00:00 - 19.09.2019 20:00:00 (CEST)Bremen, Germany (10224): visibility: 13.09.2019 20:00:00 - 19.09.2019 20:00:00 (CEST)Bremen, Germany (10224): sunshine duration: 13.09.2019 20:00:00 - 19.09.2019 20:00:00 (CEST)Bremen, Germany (10224): precipitation: 13.09.2019 20:00:00 - 19.09.2019 20:00:00 (CEST)
Date & Time tt [°C] td [°C] tt 5cm [°C] tt -5cm [°C] tt -20cm [°C] tt -100cm [°C] ff [km/h] ff [kn] fx [km/h] fx [kn] dd ppp [hPa] vv [km] sd [min] rr [mm]
19.09.2019 20:00:00 - - - - - - - - - - - - - - -
19.09.2019 19:00:00 14,2 5,0 13,5 16,1 15,0 16,2 16 9 27 15 NNW 1029,8 40 60 0,0
19.09.2019 18:00:00 15,2 4,8 16,7 18,2 14,7 16,2 18 10 35 19 NNW 1029,5 10 60 0,0
19.09.2019 17:00:00 16,2 4,5 19,3 19,3 14,3 16,2 16 9 33 18 NW 1029,4 10 60 0,0
19.09.2019 16:00:00 15,7 4,2 18,6 19,8 13,8 16,2 21 11 34 18 WNW 1029,7 10 47 0,0
19.09.2019 15:00:00 16,6 4,3 22,1 19,2 13,3 16,2 17 9 44 24 NW 1029,9 40 48 0,0
19.09.2019 14:00:00 16,1 3,9 20,4 17,5 12,8 16,2 23 12 33 18 WNW 1030,2 40 37 0,0
19.09.2019 13:00:00 16,0 5,5 21,3 16,6 12,3 16,2 21 11 31 17 WNW 1030,1 10 37 0,0
19.09.2019 12:00:00 14,9 6,4 18,4 15,6 11,9 16,2 15 8 27 15 WNW 1030,3 10 60 0,0
19.09.2019 11:00:00 13,3 6,5 15,8 12,9 11,7 16,3 16 9 22 12 NW 1030,0 35 60 0,0
19.09.2019 10:00:00 11,3 6,8 13,5 10,6 11,6 16,3 9 5 13 7 W 1029,6 10 26 0,0
19.09.2019 09:00:00 7,7 6,0 8,4 8,1 11,7 16,3 5 3 8 4 SW 1029,1 10 60 0,0
19.09.2019 08:00:00 4,6 3,8 3,8 6,6 11,9 16,3 8 4 9 5 SW 1028,6 10 11 0,0
19.09.2019 07:00:00 5,6 4,6 1,4 6,6 12,2 16,3 5 3 9 5 SW 1028,2 10 0 0,0
19.09.2019 06:00:00 5,6 5,1 2,4 7,0 12,4 16,3 6 3 9 5 SSW 1027,8 30 0 0,0
19.09.2019 05:00:00 5,0 4,6 2,7 7,4 12,7 16,3 5 3 8 4 WSW 1027,7 10 0 0,0
19.09.2019 04:00:00 5,5 4,9 2,2 7,7 12,9 16,3 5 3 9 5 W 1027,5 30 0 0,0
19.09.2019 03:00:00 5,8 4,8 2,4 8,1 13,2 16,4 5 3 9 5 W 1027,5 10 0 0,0
19.09.2019 02:00:00 6,7 4,7 2,8 8,9 13,5 16,4 9 5 11 6 WNW 1027,5 10 0 0,0
19.09.2019 01:00:00 7,1 5,3 4,0 9,4 13,7 16,4 5 3 13 7 W 1027,5 10 0 0,0
19.09.2019 00:00:00 8,3 5,7 6,5 9,9 14,0 16,4 9 5 15 8 WNW 1027,2 10 0 0,0
18.09.2019 23:00:00 7,1 5,3 3,7 10,2 14,3 16,4 8 4 11 6 W 1027,0 40 0 0,0
18.09.2019 22:00:00 7,6 5,3 4,5 11,4 14,5 16,4 9 5 15 8 W 1026,8 10 0 0,1
18.09.2019 21:00:00 11,1 6,8 9,0 12,2 14,6 16,4 10 5 21 11 NW 1026,6 30 0 0,0
18.09.2019 20:00:00 12,6 5,4 10,4 13,3 14,7 16,5 16 8 34 18 NW 1026,0 40 14 0,0
18.09.2019 19:00:00 13,3 4,8 12,6 14,6 14,7 16,5 19 10 39 21 NW 1025,7 40 33 0,0
18.09.2019 18:00:00 14,8 5,0 16,4 16,1 14,5 16,5 23 13 44 24 NNW 1025,3 40 31 0,0
18.09.2019 17:00:00 15,0 4,1 17,8 16,7 14,2 16,5 22 12 41 22 NNW 1025,2 10 41 0,0
18.09.2019 16:00:00 14,6 5,7 15,9 16,8 13,9 16,5 29 16 51 27 NNW 1025,4 35 32 0,0
18.09.2019 15:00:00 15,6 5,8 18,4 16,9 13,6 16,5 28 15 40 22 NW 1025,0 10 29 0,0
18.09.2019 14:00:00 13,0 8,0 13,5 15,1 13,3 16,5 24 13 45 24 WNW 1025,5 10 23 0,0
18.09.2019 13:00:00 15,3 5,1 19,5 14,6 13,0 16,5 28 15 42 23 NW 1025,0 35 15 0,0
18.09.2019 12:00:00 15,2 6,7 18,4 14,6 12,7 16,5 26 14 39 21 WNW 1025,0 10 37 0,0
18.09.2019 11:00:00 13,0 8,2 13,6 12,5 12,5 16,6 15 8 26 14 WNW 1025,3 10 0 0,0
18.09.2019 10:00:00 12,3 7,1 11,7 11,9 12,5 16,6 18 10 26 14 WNW 1024,8 10 51 0,0
18.09.2019 09:00:00 10,6 7,3 10,4 9,3 12,6 16,6 13 7 18 10 W 1024,2 10 37 0,0
18.09.2019 08:00:00 6,5 5,6 6,0 8,2 12,8 16,6 8 4 12 6 W 1023,7 10 15 0,0
18.09.2019 07:00:00 7,4 5,9 4,3 8,8 12,9 16,6 11 6 22 12 WNW 1023,3 10 0 0,0
18.09.2019 06:00:00 8,7 7,0 6,8 8,6 13,1 16,6 15 8 21 11 WNW 1022,9 10 0 0,0
18.09.2019 05:00:00 8,1 6,9 6,2 9,2 13,3 16,6 12 7 22 12 W 1022,7 40 0 0,0
18.09.2019 04:00:00 7,6 6,9 5,4 9,7 13,4 16,6 9 5 16 9 W 1022,3 10 0 0,0
18.09.2019 03:00:00 9,0 8,3 8,3 9,9 13,6 16,6 13 7 25 14 W 1022,1 10 0 0,4
18.09.2019 02:00:00 9,5 8,0 8,2 10,1 13,7 16,7 16 9 31 17 W 1021,9 15 0 0,1
18.09.2019 01:00:00 9,1 6,7 7,1 10,4 13,9 16,7 12 6 22 12 W 1021,5 35 0 0,5
18.09.2019 00:00:00 9,1 6,7 7,2 10,5 14,1 16,7 13 7 34 18 W 1021,0 10 0 0,1
17.09.2019 23:00:00 11,0 7,8 9,8 10,8 14,3 16,7 21 11 35 19 W 1020,6 10 0 0,0
17.09.2019 22:00:00 10,6 6,8 9,1 10,6 14,5 16,7 22 12 31 17 W 1019,8 10 0 0,0
17.09.2019 21:00:00 10,7 6,4 9,3 11,2 14,7 16,7 22 12 35 19 W 1019,3 40 0 0,0
17.09.2019 20:00:00 11,7 6,1 10,3 11,9 14,9 16,7 22 12 41 22 W 1018,7 35 5 0,0
17.09.2019 19:00:00 12,2 6,7 11,5 13,2 15,0 16,7 26 14 53 29 WNW 1018,5 10 43 0,0
17.09.2019 18:00:00 13,6 6,8 13,8 14,4 15,0 16,7 35 19 55 30 WNW 1018,0 10 42 0,0
17.09.2019 17:00:00 13,0 8,4 13,2 15,1 14,9 16,7 29 16 51 27 WNW 1017,8 40 39 0,0
17.09.2019 16:00:00 11,3 8,6 10,9 15,2 14,7 16,7 35 19 70 38 WNW 1017,8 40 9 0,7
17.09.2019 15:00:00 14,7 6,0 16,1 17,0 14,4 16,8 41 22 66 36 NW 1017,1 10 27 0,0
17.09.2019 14:00:00 16,2 2,2 17,7 16,5 14,2 16,8 39 21 70 38 WNW 1016,6 10 56 0,0
17.09.2019 13:00:00 15,1 8,2 14,9 16,1 13,9 16,8 40 22 54 29 W 1016,7 40 44 0,0
17.09.2019 12:00:00 12,8 10,7 12,8 13,9 13,8 16,8 29 16 48 26 W 1016,6 10 13 0,0
17.09.2019 11:00:00 12,1 10,6 13,1 12,7 13,7 16,8 24 13 42 23 W 1016,5 10 9 0,8
17.09.2019 10:00:00 12,5 8,6 12,5 12,2 13,7 16,8 22 12 38 20 W 1016,6 30 0 0,0
17.09.2019 09:00:00 11,7 8,3 11,6 11,4 13,7 16,8 22 12 34 18 W 1016,7 10 2 0,0
17.09.2019 08:00:00 10,9 8,1 11,0 10,4 13,8 16,8 18 10 27 15 W 1016,9 10 20 0,0
17.09.2019 07:00:00 10,3 8,2 9,5 10,4 13,9 16,8 16 9 22 12 WSW 1016,8 30 0 0,0
17.09.2019 06:00:00 10,1 8,2 9,2 10,3 14,1 16,8 16 9 22 12 WSW 1017,1 10 0 0,0
17.09.2019 05:00:00 8,6 7,4 6,2 10,1 14,3 16,8 9 5 16 9 W 1017,7 10 0 0,0
17.09.2019 04:00:00 9,2 7,8 7,4 10,7 14,5 16,8 13 7 22 12 W 1017,9 10 0 0,0
17.09.2019 03:00:00 9,7 8,4 8,7 10,2 14,7 16,8 11 6 18 10 WSW 1018,2 10 0 0,0
17.09.2019 02:00:00 8,5 7,2 6,4 10,5 15,0 16,8 13 7 16 9 WSW 1018,4 10 0 0,0
17.09.2019 01:00:00 8,6 7,4 7,2 10,9 15,2 16,8 8 4 10 6 WSW 1018,8 10 0 0,0
17.09.2019 00:00:00 8,0 7,1 5,9 11,0 15,5 16,8 5 3 9 5 WSW 1018,8 10 0 0,0
16.09.2019 23:00:00 9,2 7,9 6,0 11,7 15,8 16,8 5 3 9 5 SW 1019,1 30 0 0,0
16.09.2019 22:00:00 9,3 7,6 6,3 12,6 16,0 16,9 11 6 15 8 W 1019,1 10 0 0,0
16.09.2019 21:00:00 10,6 7,9 8,3 13,9 16,2 16,9 10 5 16 9 W 1019,1 30 0 0,0
16.09.2019 20:00:00 13,9 9,8 13,0 15,2 16,2 16,9 11 6 15 8 W 1018,8 10 11 0,0
16.09.2019 19:00:00 14,7 10,0 14,2 15,8 16,3 16,9 9 5 17 9 W 1018,7 10 4 0,0
16.09.2019 18:00:00 15,3 9,0 15,2 16,6 16,2 16,9 13 7 21 11 W 1018,7 25 0 0,0
16.09.2019 17:00:00 15,6 9,0 16,2 17,3 16,1 16,9 13 7 18 10 W 1019,0 10 18 0,0
16.09.2019 16:00:00 14,4 11,7 15,1 16,6 16,0 16,9 11 6 29 16 NW 1019,1 10 1 0,2
16.09.2019 15:00:00 15,1 11,2 16,1 17,6 15,9 16,9 8 4 24 13 WNW 1019,1 10 2 0,1
16.09.2019 14:00:00 14,6 11,2 14,6 17,4 15,7 16,9 15 8 24 13 WSW 1019,5 10 2 0,0
16.09.2019 13:00:00 14,5 11,5 15,7 17,9 15,4 16,9 18 10 26 14 SW 1019,8 18 19 0,0
16.09.2019 12:00:00 15,1 11,6 17,2 16,3 15,3 16,9 13 7 22 12 W 1019,9 10 5 0,1
16.09.2019 11:00:00 14,1 11,9 14,9 15,2 15,2 16,9 11 6 18 10 W 1020,1 10 0 0,0
16.09.2019 10:00:00 13,5 12,5 13,9 14,3 15,2 16,9 11 6 13 7 WSW 1020,0 15 0 0,0
16.09.2019 09:00:00 12,9 12,1 12,9 13,8 15,3 16,9 7 4 9 5 SW 1019,6 15 0 0,0
16.09.2019 08:00:00 12,1 11,5 11,8 13,4 15,3 16,9 5 3 9 5 WSW 1019,5 15 0 0,0
16.09.2019 07:00:00 12,1 11,3 11,4 13,3 15,4 16,9 5 3 9 5 SW 1019,6 10 0 0,1
16.09.2019 06:00:00 12,2 11,0 11,6 13,4 15,5 16,9 8 4 9 5 WSW 1020,0 10 0 0,0
16.09.2019 05:00:00 12,0 10,9 11,4 13,3 15,6 16,9 8 4 9 5 WSW 1020,5 10 0 0,0
16.09.2019 04:00:00 12,0 10,7 11,3 13,3 15,8 16,9 8 4 9 5 W 1020,8 10 0 0,0
16.09.2019 03:00:00 11,3 10,2 10,2 13,2 15,9 17,0 8 4 9 5 WSW 1020,7 10 0 0,0
16.09.2019 02:00:00 11,9 10,8 10,4 13,4 16,1 17,0 6 3 11 6 WSW 1020,9 20 0 0,0
16.09.2019 01:00:00 11,9 10,6 10,7 13,7 16,3 17,0 10 5 17 9 W 1021,1 20 0 0,0
16.09.2019 00:00:00 12,8 11,1 11,9 14,2 16,4 17,0 11 6 16 9 W 1020,9 20 0 0,0
15.09.2019 23:00:00 13,7 11,8 12,9 14,6 16,6 17,0 13 7 18 10 W 1020,6 10 0 0,0
15.09.2019 22:00:00 13,9 12,5 13,1 15,2 16,7 17,0 11 6 22 12 WSW 1020,6 10 0 0,0
15.09.2019 21:00:00 14,8 12,8 13,9 15,7 16,8 17,0 16 9 24 13 W 1020,5 10 0 0,0
15.09.2019 20:00:00 15,3 13,2 14,9 16,3 16,9 17,0 15 8 28 15 W 1020,4 10 0 0,0
15.09.2019 19:00:00 14,9 13,7 14,6 16,9 17,0 17,0 28 15 49 27 NW 1020,5 10 0 0,0
15.09.2019 18:00:00 16,5 14,0 15,6 17,8 16,9 17,0 28 15 49 27 WNW 1020,1 10 0 0,0
15.09.2019 17:00:00 18,4 14,2 18,3 18,8 16,8 17,0 24 13 34 18 WNW 1019,7 10 0 0,0
15.09.2019 16:00:00 19,4 14,1 19,4 19,7 16,5 17,0 18 10 40 21 W 1019,7 10 0 0,0
15.09.2019 15:00:00 20,0 13,5 20,4 20,8 16,0 17,0 26 14 41 22 W 1019,7 10 6 0,0
15.09.2019 14:00:00 22,3 13,2 25,5 22,2 15,4 17,0 28 15 46 25 W 1019,8 10 60 0,0
15.09.2019 13:00:00 20,8 11,4 24,0 20,2 14,9 17,0 29 16 42 23 W 1020,2 10 60 0,0
15.09.2019 12:00:00 19,1 9,9 21,3 17,0 14,5 17,0 25 14 38 20 WSW 1020,5 40 52 0,0
15.09.2019 11:00:00 16,8 9,3 18,2 14,9 14,4 17,0 22 12 29 16 SW 1020,3 10 54 0,0
15.09.2019 10:00:00 14,9 7,8 15,7 13,0 14,3 17,0 18 10 28 15 SW 1021,0 10 59 0,0
15.09.2019 09:00:00 12,4 7,5 11,8 11,1 14,5 17,0 19 10 26 14 SW 1021,4 40 2 0,0
15.09.2019 08:00:00 10,1 6,7 8,8 10,1 14,7 17,0 13 7 22 12 SW 1021,6 35 0 0,0
15.09.2019 07:00:00 8,7 5,9 5,5 10,0 14,9 17,0 7 4 11 6 SSW 1022,0 45 0 0,0
15.09.2019 06:00:00 8,1 6,1 5,4 10,2 15,2 17,0 5 3 15 8 SSW 1022,6 10 0 0,0
15.09.2019 05:00:00 7,6 5,8 5,6 10,5 15,5 17,0 9 5 13 7 S 1023,0 10 0 0,0
15.09.2019 04:00:00 7,6 6,9 5,0 10,9 15,8 17,0 5 3 7 4 SSW 1024,1 45 0 0,0
15.09.2019 03:00:00 7,5 7,0 4,9 11,3 16,1 17,1 4 2 5 3 SSW 1024,8 10 0 0,0
15.09.2019 02:00:00 8,3 7,0 5,6 11,8 16,4 17,1 2 1 4 2 SW 1025,7 10 0 0,0
15.09.2019 01:00:00 8,7 7,2 6,1 12,3 16,7 17,1 5 3 9 5 S 1026,4 10 0 0,0
15.09.2019 00:00:00 9,4 7,7 7,1 13,0 17,0 17,1 2 1 4 2 - 1027,7 10 0 0,0
14.09.2019 23:00:00 10,2 8,4 7,3 13,6 17,3 17,1 3 2 5 3 S 1028,2 45 0 0,0
14.09.2019 22:00:00 10,8 8,4 7,8 14,6 17,6 17,1 2 1 4 2 SSE 1029,2 10 0 0,0
14.09.2019 21:00:00 12,9 8,6 9,5 15,8 17,8 17,1 4 2 5 3 - 1029,7 10 0 0,0
14.09.2019 20:00:00 14,7 8,6 11,4 17,3 17,9 17,1 5 3 9 5 S 1029,7 10 0 0,0
14.09.2019 19:00:00 16,9 8,5 14,9 19,5 17,8 17,1 6 3 15 8 WSW 1030,0 40 53 0,0
14.09.2019 18:00:00 18,8 8,0 20,2 20,8 17,5 17,1 6 3 13 7 SW 1030,6 35 46 0,0
14.09.2019 17:00:00 18,8 6,8 20,9 22,0 17,1 17,1 9 5 18 10 SW 1031,2 10 60 0,0
14.09.2019 16:00:00 19,2 8,5 21,7 21,2 16,7 17,1 5 3 16 8 S 1032,1 35 39 0,0
14.09.2019 15:00:00 17,8 7,3 20,5 20,6 16,3 17,1 9 5 18 10 W 1033,2 10 32 0,0
14.09.2019 14:00:00 17,8 7,4 21,6 19,5 15,9 17,1 8 4 13 7 SW 1033,9 10 25 0,0
14.09.2019 13:00:00 17,0 9,5 20,0 19,3 15,5 17,1 8 4 16 9 W 1034,1 10 33 0,0
14.09.2019 12:00:00 16,1 9,2 17,5 18,8 15,1 17,1 5 3 15 8 SW 1034,9 10 49 0,0
14.09.2019 11:00:00 15,2 9,9 17,3 17,0 14,8 17,1 5 3 9 5 SSW 1035,4 10 60 0,0
14.09.2019 10:00:00 13,3 10,2 15,8 14,4 14,7 17,1 5 3 8 4 WSW 1035,5 30 60 0,0
14.09.2019 09:00:00 10,1 8,7 10,9 11,8 14,8 17,1 4 2 5 3 SW 1035,3 35 60 0,0
14.09.2019 08:00:00 7,6 7,4 7,6 10,4 15,0 17,1 4 2 5 3 S 1035,3 10 19 0,0
14.09.2019 07:00:00 7,6 7,6 5,2 10,4 15,3 17,1 4 2 5 3 SSW 1035,2 2,0 0 0,0
14.09.2019 06:00:00 7,5 7,5 6,4 10,8 15,5 17,1 4 2 5 3 SSW 1035,2 10 0 0,0
14.09.2019 05:00:00 7,6 7,6 5,5 10,7 15,8 17,1 4 2 5 3 SW 1035,4 10 0 0,0
14.09.2019 04:00:00 7,7 7,5 5,5 11,2 16,1 17,1 5 3 5 3 WSW 1035,4 10 0 0,0
14.09.2019 03:00:00 8,0 8,0 5,2 11,3 16,4 17,1 5 3 5 3 SW 1035,2 10 0 0,0
14.09.2019 02:00:00 7,8 7,8 5,8 11,7 16,8 17,1 4 2 5 3 SSW 1035,3 10 0 0,0
14.09.2019 01:00:00 8,7 8,7 6,0 12,3 17,1 17,1 5 3 5 3 W 1035,6 30 0 0,0
14.09.2019 00:00:00 9,7 9,0 6,5 12,9 17,5 17,1 4 2 5 3 W 1035,4 10 0 0,0
13.09.2019 23:00:00 10,0 8,4 7,2 13,7 17,8 17,1 5 3 8 4 W 1035,1 10 0 0,0
13.09.2019 22:00:00 12,1 9,2 8,7 14,6 18,1 17,1 6 3 13 7 W 1034,8 35 0 0,0
13.09.2019 21:00:00 14,9 9,0 11,5 15,7 18,4 17,1 9 5 24 13 NNW 1034,7 40 0 0,0
13.09.2019 20:00:00 15,6 8,1 13,4 17,0 18,5 17,1 11 6 27 14 NNW 1034,2 10 10 0,0

tt = temperature
td = dewpoint
tt 5cm = temperature 5cm
tt -5cm = temperature -5cm
tt -20cm = temperature -20cm
tt -100cm = temperature -100cm
ff = wind speed
fx = gusts
dd = wind direction
ppp = reduced air pressure
vv = visibility
sd = sunshine duration
rr = precipitation

Next stations